Retour au catalogue

SL-8 R/B

ActifPO
NORAD 21876·ROCKET BODY·🇷🇺 Russia

Lancé Feb 17, 1992 depuis Plesetsk Cosmodrome

Loading…

Prochains Passages (prochaines 24 heures)

TLE

FraisSource: Space-Track

Époque: Sep 14, 2026, 15:11 UTC

1 21876U 92008B   26257.63289763  .00000107  00000-0  94879-4 0  9998
2 21876  82.9262 127.2951 0034107 328.9787  59.6688 13.75992255735400

Suivez SL-8 R/B en temps réel avec AllMySat

Download on the App Store